Location: Chanteloup
(48.8560°N, 2.7390°E)
Time: 21:47:13
(UTC+00:00)

Cosmos 2322 Rocket - Pass Details

Date: 04 June 2022
Orbit: 833 x 851 km, 71.0° (Epoch: 06 July)

Event Time Altitude Azimuth Distance (km) Brightness Sun altitude
Rises 23:30:09 0° 285° (WNW) 3,382 5.6 -18.5°
Reaches altitude 10° 23:35:08 10° 324° (NW) 2,453 5.4 -18.6°
Maximum altitude 23:36:16 11° 336° (NNW) 2,415 5.6 -18.6°
Drops below altitude 10° 23:37:24 10° 348° (NNW) 2,456 5.8 -18.6°
Sets 23:42:26 0° 26° (NNE) 3,398 6.4 -18.6°
